Home > Weather > Savannah > Past weeks

Flag for U.S.A. Weather for the Past 2 Weeks in Savannah, Georgia, U.S.A.

Now
31 °F

Clear.


Feels Like: 25 °F
Forecast: 30 / 55 °F
Wind: 7 mph from West

Location: Hunter U. S. Army Airfield

Current Time: Feb 11, 2016 at 4:54:04 AM

Latest Report: Feb 11, 2016 at 3:58 AM


Visibility: 10 mi

Pressure: 30.21 "Hg

Humidity: 64%

Dew point: 20 °F

Location of SavannahLocation

Historic Weather in Savannah — Graph

°F

Savannah Temperature Yesterday

Maximum temperature yesterday: 45 °F (at 2:58 PM)
Minimum temperature yesterday: 27 °F (at 4:58 AM)
Average temperature yesterday: 36 °F

High & Low Weather Summary for the Past Weeks

 TemperatureHumidityPressure
High77 °F (Feb 1, 1:58 PM)100% (Jan 27, 4:03 AM)30.37 "Hg (Jan 27, 4:03 AM)
Low27 °F (Feb 10, 4:58 AM)27% (Feb 10, 3:58 PM)29.72 "Hg (Feb 8, 3:58 PM)
Average50 °F76%30.03 "Hg
* Reported Jan 27 4:03 AM — Feb 11 3:58 AM, Savannah, Weather by CustomWeather, © 2016

Note: Actual official high and low records may vary slightly from our data, if they occured in-between our weather recording intervals... More about our weather records

Advertising

Savannah Weather History for the Previous 24 Hours

 ConditionsComfort  
Time TempWeatherWind HumidityBarometerVisibility
3:58 AM
Thu, Feb 11
31 °FClear.7 mph64%30.21 "Hg10 mi
2:58 AM32 °FClear.7 mph60%30.20 "Hg10 mi
1:58 AM35 °FClear.9 mph52%30.18 "Hg10 mi
12:58 AM33 °FClear.8 mph59%30.19 "Hg10 mi
11:58 PM
Wed, Feb 10
35 °FClear.7 mph55%30.19 "Hg10 mi
10:58 PM33 °FClear.5 mph58%30.18 "Hg10 mi
9:58 PM33 °FClear.5 mph56%30.17 "Hg10 mi
8:58 PM36 °FClear.5 mph46%30.16 "Hg10 mi
7:58 PM37 °FClear.8 mph43%30.16 "Hg10 mi
6:58 PM38 °FClear.7 mph40%30.14 "Hg10 mi
5:58 PM41 °FSunny.18 mph32%30.12 "Hg10 mi
4:58 PM44 °FSunny.16 mph27%30.09 "Hg10 mi
3:58 PM44 °FSunny.20 mph27%30.06 "Hg10 mi
2:58 PM45 °FSunny.23 mph28%30.06 "Hg10 mi
1:58 PM45 °FSunny.20 mph32%30.05 "Hg10 mi
12:58 PM43 °FSunny.22 mph34%30.06 "Hg10 mi
11:58 AM41 °FSunny.20 mph38%30.09 "Hg10 mi
10:58 AM38 °FSunny.20 mph43%30.10 "Hg10 mi
9:58 AM36 °FPassing clouds.20 mph52%30.10 "Hg10 mi
8:58 AM33 °FSunny.18 mph61%30.09 "Hg10 mi
7:58 AM30 °FSunny.10 mph76%30.09 "Hg10 mi
6:58 AM28 °FClear.9 mph77%30.08 "Hg10 mi
5:58 AM28 °FClear.9 mph79%30.05 "Hg10 mi
4:58 AM27 °FClear.7 mph80%30.04 "Hg10 mi
Weather by CustomWeather, © 2016

See weather overviewHow to use our weather pages